Regional Weather Roundup
Issued by NWS

Home | Current Version | Previous Version | Text Only | Print | Product List | Glossary Off
Versions: 1 2 3 4 5 6 7 8 9 10 11 12 13 14 15 16 17 18 19 20 21 22 23 24 25 26 27 28 29 30 31 32 33 34 35 36 37 38 39 40 41 42 43 44 45 46 47 48 49 50

000
ASUS45 KBOI 181010
RWRID
WEATHER ROUNDUP FOR IDAHO
NATIONAL WEATHER SERVICE BOISE ID
300 AM MST THU DEC 18 2014

NOTE: "FAIR" INDICATES FEW OR NO CLOUDS BELOW 12000 FEET
WITH NO SIGNIFICANT WEATHER AND/OR OBSTRUCTIONS TO VISIBILITY

IDZ012-014-181100-
SOUTHWEST IDAHO


CITY           SKY/WX    TMP DP  RH WIND       PRES   REMARKS
BOISE          MOCLDY    37  31  78 S8        30.04R WCI  31
CALDWELL       CLEAR     34  27  75 CALM      30.07R
MOUNTAIN HOME  CLEAR     34  29  82 SE16      30.05R WCI  23
$$

IDZ016-017-181100-
SOUTHCENTRAL IDAHO


CITY           SKY/WX    TMP DP  RH WIND       PRES   REMARKS
BURLEY         CLEAR     26  22  84 SW7       30.05R WCI  18
JEROME         CLEAR     27  23  85 NE10      30.06R WCI  17
TWIN FALLS     PTCLDY    32  23  69 S12       30.05R WCI  23
$$

IDZ019>023-181100-
SOUTHEAST IDAHO


CITY           SKY/WX    TMP DP  RH WIND       PRES   REMARKS
IDAHO FALLS    PTCLDY    16  13  88 N5        30.07R WCI   9
POCATELLO      CLEAR     22  22 100 CALM      30.07R FOG
REXBURG        CLOUDY    25  24  96 CALM      30.06R FOG
$$

IDZ006-010-011-018-031-032-181100-
CENTRAL IDAHO MOUNTAINS


CITY           SKY/WX    TMP DP  RH WIND       PRES   REMARKS
MCCALL         CLOUDY    31  30  96 W3        29.98S
HAILEY         CLOUDY    27  21  80 NW9       30.07R WCI  17
STANLEY          N/A     18  14  84 CALM      30.02R
SALMON         CLOUDY    18  14  86 CALM      30.08R
CHALLIS        CLOUDY    18  16  92 CALM      30.06S
$$

IDZ002-004-006-007-026-181100-
NORTHERN IDAHO


CITY           SKY/WX    TMP DP  RH WIND       PRES   REMARKS
LEWISTON       LGT RAIN  39  37  92 CALM      29.99R
LOWELL           N/A     35  33  92 CALM      30.05R
COEUR D`ALENE  CLOUDY    34  32  93 NE3       29.96R
MULLAN PASS    SNOW      28  27  96 VRB5      29.89R VSB 1/4 WCI  23
$$



USA.gov is the U.S. government's official web portal to all federal, state and local government web resources and services.